Location: Cambroso
(45.2833°N, 12.0850°E)
Time: 16:10:44
(UTC+00:00)

OE (NEXTSAT) - Pass Details

Date: 21 January 2021
Orbit: 426 x 436 km, 46.0° (Epoch: 25 February)

Event Time Altitude Azimuth Distance (km) Brightness Sun altitude
Rises 17:28:02 0° 261° (W) 2,380 10.0 -14.7°
Reaches altitude 10° 17:30:09 10° 262° (W) 1,515 8.5 -15.1°
Maximum altitude 17:33:34 85° 350° (N) 432 4.2 -15.7°
Enters shadow 17:34:46 38° 78° (ENE) 664 4.7 -15.9°
